Temp
11 11 11 11 11 11 10 10 10 10 10 10 9 9 8 8 7 7 6 6 5 4 4 3 3 2 2 1 1 1 0 0 -0 -0 -0 -0 -0 -0 -0 -0 -0 -0 -0
11 11 11 11 11 10 10 10 10 9 9 8 8 7 7 7 6 6 5 4 4 3 3 2 2 1 1 1 0 0 -0 -0 -1 -1 -1 -1 -1 -0 -1 -1 -1 -1 -1
10 10 10 10 10 10 9 9 8 8 8 7 7 7 6 5 5 4 4 3 3 2 2 2 1 1 0 -0 -0 -1 -1 -1 -1 -2 -2 -2 -1 -1 -1 -1 -1 -0 -0
10 10 9 9 9 8 8 8 7 7 6 6 5 5 4 4 3 2 2 2 1 1 1 0 -0 -0 -1 -1 -2 -2 -2 -2 -2 -2 -2 -2 -2 -1 -1 -1 -1 -1 -0
9 9 8 8 8 7 7 6 6 5 5 4 4 3 3 2 2 2 1 1 1 0 -0 -0 -1 -1 -1 -2 -2 -2 -3 -3 -3 -2 -2 -2 -2 -2 -3 -2 -2 -1 -0
8 8 7 7 6 6 6 5 5 4 3 3 2 2 2 1 1 1 0 0 -0 -1 -1 -1 -1 -1 -2 -2 -2 -3 -2 -3 -3 -2 -2 -2 -2 -3 -2 -2 -2 -3 -3
7 7 6 6 5 5 4 4 3 3 2 2 1 1 1 0 0 0 -0 -1 -1 -1 -1 -2 -2 -2 -2 -3 -3 -3 -3 -3 -3 -3 -2 -2 -2 -2 -3 -2 -2 -3 -2
6 6 5 4 4 3 3 2 2 1 1 0 0 0 0 -0 -1 -1 -1 -2 -2 -2 -2 -2 -2 -2 -3 -3 -3 -3 -2 -2 -2 -2 -3 -3 -3 -2 -2 -2 -2 -2 -2
5 4 4 3 3 2 2 1 1 0 0 -0 -0 -1 -1 -2 -2 -2 -2 -2 -2 -3 -3 -3 -3 -3 -3 -4 -4 -3 -2 -2 -3 -3 -2 -2 -2 -2 -1 -1 -2 -2 -2
4 3 3 3 2 2 1 1 0 -0 -1 -1 -1 -2 -2 -2 -3 -2 -3 -3 -3 -3 -4 -4 -4 -4 -4 -4 -3 -3 -3 -3 -3 -2 -3 -3 -2 -2 -2 -3 -3 -3 -3
3 3 2 2 1 0 0 -0 -0 -1 -1 -2 -2 -2 -3 -3 -2 -3 -3 -4 -4 -4 -4 -4 -4 -4 -4 -4 -4 -3 -3 -2 -3 -3 -3 -3 -3 -3 -3 -3 -4 -4 -4
2 2 1 1 0 -0 -0 -1 -1 -2 -2 -2 -3 -3 -3 -3 -3 -3 -5 -5 -4 -4 -4 -4 -4 -4 -4 -4 -3 -3 -3 -3 -3 -3 -4 -4 -4 -4 -4 -4 -5 -5 -4
2 1 0 -0 -1 -1 -1 -2 -2 -2 -3 -3 -3 -3 -3 -4 -4 -5 -5 -5 -5 -5 -5 -5 -4 -4 -4 -4 -4 -4 -4 -4 -4 -5 -5 -5 -5 -5 -5 -5 -5 -5 -5
1 0 -1 -1 -1 -2 -2 -2 -3 -3 -3 -4 -4 -5 -5 -6 -6 -6 -5 -5 -5 -5 -5 -4 -4 -5 -4 -5 -5 -5 -5 -5 -5 -5 -5 -5 -5 -5 -5 -5 -5 -5 -5
-0 -1 -1 -1 -2 -2 -2 -3 -3 -4 -5 -5 -5 -6 -6 -6 -7 -6 -6 -5 -6 -5 -5 -5 -5 -5 -5 -5 -5 -5 -5 -6 -6 -6 -6 -6 -6 -6 -6 -6 -6 -6 -5
-0 -1 -1 -2 -2 -3 -3 -3 -4 -5 -5 -5 -6 -7 -7 -7 -7 -6 -6 -6 -6 -6 -6 -6 -6 -6 -6 -6 -6 -6 -7 -7 -6 -6 -6 -6 -6 -6 -6 -6 -6 -6 -6
-1 -1 -2 -2 -3 -3 -3 -4 -4 -3 -4 -4 -6 -8 -8 -7 -7 -7 -6 -6 -6 -6 -6 -6 -6 -6 -6 -7 -7 -7 -7 -7 -7 -7 -7 -6 -6 -6 -6 -6 -6 -6 -6
-1 -1 -2 -2 -3 -3 -4 -4 -5 -5 -5 -4 -5 -7 -7 -8 -7 -7 -6 -7 -6 -6 -6 -6 -6 -7 -7 -7 -7 -7 -7 -7 -7 -7 -7 -7 -7 -6 -7 -7 -7 -6 -6
-1 -1 -2 -3 -3 -3 -4 -4 -4 -5 -6 -6 -5 -5 -6 -7 -7 -7 -7 -7 -7 -6 -7 -7 -7 -7 -7 -7 -7 -7 -7 -7 -7 -7 -7 -7 -6 -6 -7 -7 -7 -6 -6
-1 -2 -2 -2 -2 -3 -3 -4 -4 -5 -5 -6 -6 -7 -6 -7 -7 -7 -6 -7 -7 -7 -7 -7 -6 -6 -6 -6 -6 -7 -7 -7 -7 -7 -7 -7 -7 -7 -7 -7 -6 -6 -6
-1 -2 -2 -2 -2 -3 -3 -4 -5 -5 -6 -6 -6 -6 -8 -7 -7 -7 -7 -7 -7 -6 -6 -6 -6 -5 -5 -6 -6 -6 -6 -7 -7 -7 -7 -7 -7 -7 -7 -7 -7 -6 -6
-2 -2 -2 -2 -2 -3 -3 -4 -5 -5 -5 -6 -7 -7 -7 -7 -7 -7 -6 -6 -6 -5 -5 -5 -5 -5 -5 -5 -6 -6 -6 -7 -7 -7 -7 -7 -7 -7 -7 -7 -6 -6 -7
-2 -2 -2 -2 -3 -3 -4 -3 -4 -5 -6 -6 -6 -6 -6 -6 -6 -6 -6 -5 -5 -5 -5 -5 -5 -5 -5 -5 -6 -6 -6 -6 -7 -7 -7 -7 -7 -7 -7 -7 -7 -6 -6
-2 -2 -2 -3 -3 -4 -4 -4 -5 -6 -6 -6 -7 -7 -6 -6 -5 -5 -5 -5 -5 -5 -5 -6 -6 -6 -5 -5 -5 -6 -6 -6 -6 -6 -6 -7 -7 -7 -7 -7 -7 -6 -6
-2 -2 -2 -3 -3 -4 -4 -4 -5 -5 -6 -7 -7 -7 -6 -6 -6 -5 -5 -5 -5 -5 -5 -5 -5 -5 -5 -4 -4 -4 -5 -5 -5 -5 -5 -5 -6 -6 -6 -6 -5 -5 -4
-2 -2 -3 -3 -4 -4 -4 -4 -5 -6 -7 -7 -7 -7 -6 -6 -6 -5 -5 -6 -5 -5 -5 -4 -4 -3 -3 -3 -3 -3 -3 -3 -3 -3 -3 -3 -3 -3 -3 -3 -3 -3 -2
Height
1486 1489 1490 1494 1498 1504 1509 1513 1517 1521 1520 1521 1521 1523 1524 1525 1526 1526 1525 1525 1526 1525 1525 1524 1524 1524 1524 1523 1523 1521 1520 1518 1514 1510 1510 1511 1509 1508 1507 1506 1504 1502 1501
1490 1492 1495 1498 1502 1507 1511 1514 1517 1519 1518 1518 1519 1521 1522 1522 1522 1521 1521 1522 1521 1521 1520 1519 1519 1518 1517 1517 1515 1514 1513 1512 1509 1504 1502 1502 1501 1500 1498 1497 1496 1494 1492
1494 1496 1499 1503 1506 1509 1512 1515 1517 1518 1516 1516 1517 1519 1519 1519 1519 1518 1518 1518 1517 1516 1516 1515 1514 1513 1511 1510 1509 1507 1505 1504 1502 1498 1496 1496 1494 1493 1490 1488 1486 1485 1483
1497 1500 1502 1505 1508 1510 1512 1514 1515 1515 1514 1515 1516 1516 1516 1515 1515 1514 1514 1513 1512 1512 1511 1510 1508 1507 1505 1503 1502 1500 1498 1496 1495 1493 1490 1488 1487 1486 1482 1480 1478 1477 1477
1502 1504 1505 1507 1509 1509 1510 1512 1513 1513 1514 1514 1513 1513 1512 1512 1511 1510 1510 1508 1507 1506 1505 1504 1503 1502 1500 1499 1498 1494 1492 1489 1488 1486 1484 1482 1480 1479 1478 1476 1473 1472 1470
1506 1506 1508 1509 1509 1510 1513 1513 1513 1513 1512 1511 1511 1510 1510 1509 1509 1508 1506 1504 1502 1500 1498 1498 1497 1496 1494 1492 1490 1488 1487 1483 1481 1479 1478 1476 1474 1473 1472 1470 1469 1467 1465
1507 1508 1509 1510 1510 1512 1512 1512 1512 1511 1510 1508 1507 1506 1505 1504 1503 1502 1500 1498 1495 1493 1492 1490 1489 1488 1486 1484 1482 1480 1477 1476 1475 1474 1471 1469 1468 1467 1465 1464 1462 1462 1460
1507 1508 1509 1509 1510 1510 1510 1509 1508 1507 1506 1505 1503 1502 1500 1499 1498 1496 1494 1493 1489 1488 1486 1484 1482 1480 1479 1476 1474 1471 1470 1469 1468 1466 1465 1463 1461 1460 1459 1457 1455 1454 1453
1508 1508 1508 1509 1509 1509 1508 1507 1506 1505 1503 1501 1499 1498 1496 1495 1492 1491 1489 1487 1484 1481 1479 1477 1475 1473 1471 1470 1468 1466 1463 1460 1461 1459 1458 1456 1455 1454 1453 1449 1448 1449 1447
1508 1508 1508 1508 1507 1507 1506 1505 1503 1502 1500 1497 1495 1493 1490 1489 1487 1484 1482 1479 1476 1474 1472 1470 1468 1466 1464 1464 1462 1459 1457 1455 1453 1451 1450 1449 1448 1448 1447 1445 1444 1442 1442
1508 1508 1507 1506 1506 1505 1504 1502 1501 1498 1496 1493 1491 1488 1486 1484 1481 1478 1475 1473 1470 1468 1465 1463 1461 1460 1458 1456 1455 1453 1450 1447 1444 1443 1442 1441 1440 1440 1439 1438 1437 1436 1434
1507 1506 1506 1505 1504 1502 1501 1499 1497 1494 1491 1489 1487 1484 1482 1479 1475 1471 1469 1468 1466 1463 1460 1457 1455 1453 1451 1450 1447 1444 1443 1443 1438 1437 1435 1433 1432 1431 1431 1429 1428 1428 1428
1506 1505 1504 1503 1502 1500 1498 1495 1492 1490 1487 1484 1481 1478 1475 1472 1469 1466 1464 1461 1459 1457 1454 1452 1450 1447 1445 1442 1440 1438 1438 1434 1432 1429 1427 1425 1425 1424 1423 1422 1422 1422 1421
1504 1503 1502 1501 1499 1497 1494 1492 1490 1487 1484 1480 1476 1472 1468 1465 1464 1461 1459 1457 1454 1451 1449 1446 1443 1441 1438 1436 1433 1431 1428 1425 1423 1421 1419 1419 1418 1417 1416 1416 1415 1415 1414
1502 1501 1500 1498 1496 1494 1492 1489 1486 1484 1481 1477 1473 1469 1465 1461 1459 1458 1455 1452 1449 1446 1443 1439 1436 1433 1430 1428 1426 1423 1421 1419 1417 1416 1414 1413 1412 1411 1410 1410 1409 1409 1408
1500 1499 1498 1496 1494 1491 1488 1486 1484 1481 1477 1474 1469 1466 1461 1458 1455 1453 1449 1447 1444 1441 1437 1433 1430 1426 1423 1420 1418 1416 1414 1412 1412 1410 1409 1407 1406 1405 1404 1404 1403 1403 1403
1498 1497 1496 1494 1492 1489 1485 1482 1479 1476 1473 1468 1463 1460 1458 1455 1451 1448 1445 1442 1438 1435 1430 1427 1423 1420 1417 1414 1412 1410 1408 1406 1405 1404 1402 1401 1400 1399 1398 1397 1397 1398 1398
1497 1496 1494 1492 1490 1487 1484 1481 1477 1472 1466 1463 1461 1457 1453 1450 1447 1444 1441 1436 1432 1429 1425 1421 1417 1414 1411 1409 1406 1403 1401 1399 1398 1397 1396 1395 1394 1393 1393 1392 1392 1392 1393
1496 1495 1493 1491 1488 1486 1483 1479 1475 1471 1466 1462 1457 1454 1451 1447 1443 1440 1436 1432 1427 1423 1419 1415 1412 1408 1405 1402 1399 1396 1394 1392 1391 1390 1389 1388 1388 1387 1387 1387 1387 1387 1388
1495 1493 1492 1490 1487 1485 1482 1478 1474 1469 1464 1459 1455 1451 1446 1443 1440 1436 1432 1428 1423 1419 1414 1410 1406 1402 1399 1395 1392 1389 1386 1384 1383 1383 1382 1382 1381 1381 1381 1381 1381 1382 1381
1494 1492 1491 1489 1486 1484 1480 1477 1473 1468 1464 1459 1454 1450 1447 1443 1438 1433 1428 1423 1419 1414 1410 1406 1401 1397 1392 1388 1384 1381 1378 1377 1376 1376 1375 1375 1375 1375 1375 1375 1376 1376 1376
1492 1491 1490 1488 1485 1483 1480 1476 1472 1467 1463 1457 1453 1449 1444 1440 1435 1430 1425 1420 1416 1412 1407 1402 1396 1391 1386 1382 1377 1373 1370 1369 1369 1369 1369 1369 1370 1370 1370 1370 1370 1370 1370
1492 1491 1489 1487 1485 1482 1478 1474 1470 1466 1461 1457 1452 1446 1441 1437 1432 1428 1423 1418 1414 1409 1404 1399 1393 1388 1382 1377 1372 1367 1365 1363 1363 1364 1364 1364 1365 1365 1365 1365 1365 1364 1364
1491 1490 1488 1486 1484 1481 1477 1473 1469 1465 1461 1456 1451 1445 1440 1436 1431 1426 1422 1417 1412 1408 1403 1397 1392 1386 1380 1374 1369 1365 1362 1361 1360 1360 1360 1360 1360 1360 1360 1359 1359 1358 1358
1490 1489 1487 1485 1483 1480 1476 1472 1468 1464 1459 1455 1450 1445 1440 1435 1430 1426 1421 1416 1411 1406 1401 1397 1392 1387 1382 1376 1372 1367 1364 1361 1360 1359 1358 1357 1356 1356 1355 1354 1354 1353 1352
1490 1489 1487 1484 1482 1479 1475 1470 1466 1462 1458 1454 1450 1444 1439 1434 1430 1425 1420 1415 1410 1406 1402 1399 1394 1390 1386 1382 1378 1373 1370 1366 1363 1361 1359 1357 1356 1354 1352 1350 1349 1347 1345
Wind_Speed
11 10 11 12 13 12 13 13 14 17 17 17 17 17 15 15 16 16 16 16 16 16 17 17 17 18 19 19 21 22 23 24 29 32 30 27 29 29 28 27 26 25 24
13 13 12 12 11 12 13 13 14 16 17 16 14 13 14 14 14 14 15 15 15 16 17 18 18 19 19 20 22 24 25 26 30 35 34 32 30 28 27 28 27 29 29
15 16 18 16 14 13 12 12 12 12 11 11 11 12 13 13 14 15 15 15 17 19 17 19 18 20 22 24 27 28 27 26 26 27 28 27 29 29 32 33 32 29 28
14 13 12 11 9 8 8 7 7 7 8 9 11 12 13 14 14 14 16 18 18 18 20 22 21 23 24 26 22 24 26 29 27 27 29 29 28 26 25 25 25 17 18
9 8 7 6 4 3 3 5 6 8 9 10 11 13 14 15 16 17 17 17 19 21 22 22 23 22 23 21 22 28 25 24 26 27 28 27 28 23 23 22 24 25 22
6 5 4 2 1 3 4 6 7 9 10 11 12 13 13 14 15 15 17 19 22 24 25 25 26 24 25 32 27 23 26 27 27 28 28 26 26 26 24 23 23 25 26
5 4 2 1 2 4 5 7 9 10 11 12 13 14 16 17 19 21 22 21 25 25 25 26 27 27 28 28 30 27 25 23 22 23 27 27 27 26 25 25 26 26 26
1 1 2 3 6 8 10 11 12 12 12 14 15 17 18 18 19 20 18 18 21 23 25 26 27 29 29 25 27 26 21 20 21 24 24 26 25 24 23 25 27 27 26
2 3 4 6 9 11 13 13 12 13 16 17 17 18 19 19 19 19 19 22 25 26 26 27 27 28 25 25 22 24 25 24 23 25 23 23 25 23 24 18 16 16 23
2 4 8 11 13 12 12 12 14 18 19 20 20 19 19 19 21 23 24 26 27 26 27 27 26 23 23 20 22 24 26 29 29 24 19 20 21 20 20 21 23 26 27
6 10 12 11 11 12 13 15 18 20 23 20 20 20 21 23 25 24 24 20 19 23 26 27 25 22 23 22 22 23 29 24 20 21 23 28 31 31 31 32 29 28 27
10 11 11 11 11 12 15 17 20 23 21 19 21 23 23 23 23 25 18 17 18 21 25 25 24 22 21 22 25 25 25 24 27 26 27 29 28 29 27 24 22 21 22
11 11 11 12 13 16 19 21 20 18 20 22 23 26 27 26 24 18 18 17 16 18 22 24 23 24 23 24 22 27 25 30 32 34 34 31 25 23 21 22 20 21 22
12 12 12 15 17 18 17 17 18 20 21 23 25 28 28 26 25 22 19 20 21 22 22 21 22 23 26 28 29 29 24 24 22 20 19 19 21 23 21 20 20 18 20
11 12 13 14 14 15 16 17 18 19 20 23 25 23 26 27 26 22 22 22 23 23 23 26 27 28 30 31 29 25 24 21 19 19 20 20 21 21 20 18 19 18 19
9 10 11 12 14 15 17 16 15 18 21 23 23 19 23 21 20 20 19 19 20 21 23 26 29 28 27 26 25 24 21 20 20 20 20 20 20 20 20 19 18 17 18
8 9 11 13 15 17 18 19 22 21 24 24 18 15 16 19 19 19 19 21 22 23 26 25 26 26 25 23 24 24 25 23 22 20 21 21 20 20 20 18 15 15 17
9 10 11 13 15 16 17 20 23 25 24 22 15 16 18 16 18 19 20 21 22 20 21 23 23 23 23 23 23 25 25 23 22 21 20 20 20 19 17 16 15 15 16
8 8 10 12 14 16 18 20 19 21 22 22 21 18 17 17 22 20 21 20 22 23 23 24 24 25 25 26 25 25 25 24 23 22 21 21 19 17 20 19 18 16 16
7 8 10 11 13 16 16 19 21 22 23 23 22 22 22 25 25 23 21 22 23 24 24 25 24 24 25 25 24 24 24 24 22 21 20 20 18 19 18 15 16 17 17
6 7 9 11 14 14 17 19 21 21 23 22 21 23 21 22 24 24 25 24 24 24 24 24 25 25 26 25 26 26 24 23 22 21 20 19 18 18 16 15 16 17 18
5 7 9 11 13 15 17 17 19 21 21 23 25 23 22 22 24 25 25 24 22 22 23 25 26 25 25 24 23 22 21 19 18 17 17 16 16 17 14 14 16 18 19
5 7 9 11 13 15 17 19 19 20 22 22 23 24 24 25 25 25 25 23 24 23 23 23 24 25 24 23 21 19 16 15 14 13 13 14 15 16 14 15 16 18 19
5 6 9 11 13 16 17 18 17 18 21 23 25 24 24 24 25 25 23 24 24 22 24 25 22 22 24 22 18 15 11 9 8 10 11 13 14 13 14 16 17 18 20
5 7 10 11 14 16 18 18 19 21 23 24 26 25 24 22 22 22 23 24 24 23 22 21 22 22 22 22 21 18 14 10 7 6 7 8 8 9 10 12 13 13 15
5 8 10 12 14 17 18 18 20 21 22 23 25 25 24 23 22 23 24 26 22 22 18 18 19 24 25 25 24 24 22 19 16 13 10 9 10 12 15 16 18 21 25
Wind_Direction
132 138 139 150 160 174 186 197 205 209 217 219 220 226 233 245 255 261 269 276 279 280 281 282 285 286 285 285 285 286 287 288 288 291 294 295 293 293 293 291 290 289 289
129 134 143 150 163 180 189 194 203 212 206 210 222 236 248 257 266 274 277 277 278 282 285 286 286 286 288 288 287 288 289 288 289 290 293 295 294 297 296 295 291 287 287
135 139 139 143 151 157 164 176 189 204 218 231 242 256 266 272 276 277 276 279 284 289 287 290 293 291 290 290 291 290 289 289 287 287 291 293 294 294 292 293 292 289 287
137 139 141 142 151 163 176 191 215 235 253 263 270 274 276 280 284 283 284 287 287 288 292 296 295 293 294 295 295 295 295 294 290 288 290 293 293 293 295 298 301 295 305
121 122 127 139 158 185 236 260 271 280 281 282 281 280 281 280 279 281 283 282 284 287 290 289 290 287 289 292 290 291 298 295 290 285 285 290 296 292 293 305 301 296 292
127 129 136 162 247 286 280 286 291 291 289 288 286 286 285 282 279 274 274 281 283 284 285 285 286 279 283 287 293 288 282 280 282 283 285 283 284 284 292 284 290 297 293
134 140 165 235 294 302 309 309 307 304 300 298 296 292 287 284 282 282 283 283 282 284 284 285 286 287 289 291 294 292 284 274 271 275 278 280 279 281 285 285 282 281 280
118 25 349 333 327 326 322 317 315 312 310 307 302 298 297 296 296 296 295 286 280 281 282 284 285 289 293 290 294 292 289 279 277 276 277 280 283 286 282 282 277 280 274
344 338 327 322 321 318 316 319 319 318 316 312 309 307 305 304 302 299 293 288 286 285 286 288 294 296 290 290 291 289 292 290 289 284 279 278 277 278 281 290 294 276 279
322 313 315 314 313 317 318 320 319 321 318 314 309 305 305 303 300 298 297 296 293 292 291 296 297 294 294 289 285 289 289 286 287 284 286 275 277 283 285 271 272 274 280
312 317 316 312 312 313 313 312 313 314 316 312 306 304 302 302 301 302 304 303 300 294 295 296 297 297 295 291 287 283 282 294 292 288 291 288 286 285 284 283 280 272 270
318 317 313 311 303 299 301 306 311 314 313 310 308 305 305 308 304 304 306 301 295 291 292 295 295 298 298 295 289 285 286 290 287 290 286 283 285 286 284 279 271 263 263
319 317 314 305 301 303 307 310 312 310 309 309 310 310 313 315 313 313 311 309 303 295 292 296 291 291 289 292 293 296 294 282 283 283 281 281 279 279 280 275 274 266 267
315 310 307 306 307 310 313 314 312 312 312 313 314 315 315 317 318 320 319 316 309 305 303 303 299 297 289 287 297 299 295 293 290 290 285 279 276 279 280 280 274 270 267
312 312 314 316 318 318 318 316 314 314 316 314 314 317 313 313 314 317 309 306 305 305 304 299 295 294 292 296 298 293 296 290 288 284 283 281 280 278 280 277 272 273 264
319 318 319 323 325 328 328 325 320 313 315 319 314 307 304 306 312 312 310 310 310 308 299 295 296 297 296 298 297 296 298 297 287 286 286 282 282 281 285 280 272 262 261
327 329 329 330 332 335 335 332 329 327 324 326 325 321 318 315 315 316 318 315 305 303 301 301 299 299 301 301 302 296 294 290 289 286 284 280 283 282 286 282 270 259 262
331 332 334 336 338 339 337 334 330 330 337 343 343 335 332 326 325 325 321 314 313 312 310 308 309 312 311 305 297 293 296 295 288 284 281 279 283 277 284 282 275 269 261
329 334 340 343 342 341 338 339 342 342 343 343 341 340 340 344 341 333 331 325 325 325 324 320 316 312 309 306 302 298 296 292 288 285 284 283 284 267 283 273 268 268 265
336 338 345 343 345 343 347 348 347 347 347 346 348 345 347 348 335 337 335 333 332 329 325 322 320 317 314 310 306 300 294 289 284 281 281 278 273 277 279 268 268 270 267
339 343 345 347 347 348 347 348 348 347 347 349 354 355 347 336 340 343 343 342 338 335 333 330 327 325 322 317 313 309 302 292 284 278 277 280 276 281 274 265 265 265 270
345 346 346 349 352 350 350 347 347 352 355 357 356 354 355 352 353 352 351 350 347 345 342 336 332 330 326 320 316 308 301 292 284 275 275 279 275 280 272 265 264 267 271
349 349 350 352 352 353 353 351 358 2 359 356 356 358 0 1 1 1 358 357 354 352 352 350 344 340 339 334 325 316 303 290 280 272 272 273 273 274 269 264 266 268 272
347 348 350 350 352 352 350 352 1 356 358 1 2 1 2 3 5 2 1 358 354 355 348 348 353 353 352 349 349 346 336 319 293 278 271 268 268 267 268 267 267 270 271
346 349 351 350 350 349 346 350 354 355 1 4 4 2 1 1 3 1 1 357 352 355 0 7 10 16 20 22 23 24 19 6 342 314 299 289 285 280 276 278 283 288 290
345 348 350 349 348 345 344 351 354 355 1 3 4 4 2 2 4 359 357 351 353 6 18 18 26 22 20 21 21 21 21 21 21 19 8 348 332 323 312 304 299 293 294